Flag for U.S.A. Weather past 2 weeks in Peoria, Illinois, U.S.A.

Now
87 °F

Passing clouds.


Feels Like: 92 °F
Forecast: 73 / 91 °F
Wind: 7 mph from South

Location: Greater Peoria Regional Airport

Current Time: Aug 31, 2015 at 7:09:36 PM

Latest Report: Aug 31, 2015 at 5:54 PM


Visibility: 10 mi

Pressure: 29.98 "Hg

Humidity: 57%

Dew point: 70 °F

Location of PeoriaLocation

Historic Weather in Peoria — Graph

°F

Peoria temperature yesterday

Maximum temperature yesterday: 85 °F (at 3:54 PM)
Minimum temperature yesterday: 69 °F (at 5:54 AM)
Average temperature yesterday: 75 °F

Past Weeks' High & Low Weather Summary

 TemperatureHumidityPressure
High91 °F (Aug 31, 2:54 PM)93% (Aug 26, 6:54 AM)30.20 "Hg (Aug 26, 6:54 AM)
Low55 °F (Aug 25, 5:54 AM)33% (Aug 24, 3:54 PM)29.64 "Hg (Aug 19, 3:54 AM)
Average71 °F68%29.99 "Hg
* Reported Aug 16 5:54 PM — Aug 31 5:54 PM, Peoria, Weather by CustomWeather, © 2015

Note: Actual official high and low records may vary slightly from our data, if they occured in-between our weather recording intervals... More about our weather records

Advertising

Peoria weather history for previous 24 hours

 ConditionsComfort  
Time TempWeatherWind HumidityBarometerVisibility
5:54 PM
Mon, Aug 31
87 °FPassing clouds.7 mph57%29.98 "Hg10 mi
4:54 PM91 °FPassing clouds.7 mph49%29.98 "Hg10 mi
3:54 PM90 °FSunny.5 mph50%29.98 "Hg10 mi
2:54 PM91 °FScattered clouds.7 mph50%30.00 "Hg10 mi
1:54 PM89 °FScattered clouds.No wind52%30.01 "Hg10 mi
12:54 PM89 °FPassing clouds.6 mph55%30.03 "Hg8 mi
11:54 AM86 °FPassing clouds.6 mph63%30.04 "Hg8 mi
10:54 AM84 °FSunny.6 mph65%30.05 "Hg9 mi
9:54 AM80 °FSunny.5 mph74%30.05 "Hg7 mi
8:54 AM76 °FSunny.3 mph80%30.05 "Hg5 mi
7:54 AM72 °FSunny.No wind84%30.04 "Hg4 mi
6:54 AM68 °FFog.3 mph87%30.04 "Hg3 mi
5:54 AM68 °FFog.5 mph87%30.02 "Hg5 mi
4:54 AM68 °FFog.5 mph87%30.01 "Hg6 mi
3:54 AM68 °FClear.6 mph90%30.01 "Hg7 mi
2:54 AM68 °FClear.5 mph87%30.01 "Hg7 mi
1:54 AM69 °FClear.3 mph87%30.01 "Hg7 mi
12:54 AM70 °FClear.No wind87%30.01 "Hg7 mi
11:54 PM
Sun, Aug 30
70 °FClear.5 mph84%30.01 "Hg8 mi
10:54 PM72 °FClear.3 mph81%30.01 "Hg9 mi
9:54 PM73 °FClear.3 mph79%30.01 "Hg10 mi
8:54 PM73 °FClear.5 mph81%30.02 "Hg9 mi
7:54 PM76 °FSunny.3 mph74%30.00 "Hg10 mi
Weather by CustomWeather, © 2015

See weather overviewHow to use our weather pages